sat.trackr.live / text

‹ back to catalog

STARLINK-3511

NORAD 51752 · 2022-016AQ

PAYLOAD ACTIVE UNKNOWN

§ Identity

Operator
Country
US
Launch date
2022-02-21
Launch site
AFETR
Launch vehicle
Mass (kg)
RCS (m²)

Purposes: comms

External: N2YO · Heavens-Above · Gunter

§ Orbital elements

Epoch: 2026-09-20T03:22:22.267200Z

Period
94.01 min
Inclination
53.1599°
Eccentricity
0.0001354
Mean motion
15.31691994 rev/d
Perigee alt
469.8 km
Apogee alt
471.7 km
Semi-major
6,848.9 km
B*
5.2923e-5
RAAN
140.4240°
Arg perigee
82.6060°
Mean anomaly
277.5095°
Rev number
25,327

§ Raw data

STARLINK-35111 51752U 22016AQ  26263.14053550  .00001277  00000+0  52923-4 0  99942 51752  53.1599 140.4240 0001354  82.6060 277.5095 15.31691994253276

JSON: /api/v1/satellites/51752 · /tle

For live sub-satellite position, see the globe view (requires WebGL).

§ Visibility from observer

Set your observer location to see the next 7 days of passes ≥ 10°. The values pass through the URL so the page stays shareable.

No JS? Fill the form by hand. The geolocation button needs JavaScript.